Flag for Australia Weather past 2 weeks in Cairns, Queensland, Australia

Now
84 °F

Passing clouds.


Feels Like: 94 °F
Forecast: 74 / 88 °F
Wind: 5 mph from North

Location: Cairns Airport

Current Time: Feb 1, 2015 at 8:48:59 PM

Latest Report: Feb 1, 2015 at 8:00 PM


Visibility: N/A

Pressure: 29.71 "Hg

Humidity: 79%

Dew point: 77 °F

Location of CairnsLocation

Historic Weather in Cairns — Graph

°F

Cairns temperature yesterday

Maximum temperature yesterday: 88 °F (at 9:30 AM)
Minimum temperature yesterday: 77 °F (at 4:00 AM)
Average temperature yesterday: 81 °F

Past Weeks' High & Low Weather Summary

 TemperatureHumidityPressure
High97 °F (Jan 29, 12:00 PM)100% (Feb 1, 12:00 AM)29.86 "Hg (Feb 1, 12:00 AM)
Low75 °F (Jan 21, 12:30 AM)28% (Jan 29, 11:30 AM)29.50 "Hg (Jan 28, 1:30 PM)
Average83 °F78%29.68 "Hg
* Reported Jan 17 7:00 PM — Feb 1 7:30 PM, Cairns, Weather by CustomWeather, © 2014

Note: Actual official high and low records may vary slightly from our data, if they occured in-between our weather recording intervals... More about our weather records

Advertising

Cairns weather history for previous 24 hours

 ConditionsComfort  
Time TempWeatherWind HumidityBarometerVisibility
7:30 PM
Feb 1
84 °FPassing clouds.6 mph79%29.71 "HgN/A
7:00 PM84 °FPassing clouds.7 mph79%29.68 "HgN/A
6:30 PM86 °FScattered clouds.7 mph75%29.68 "HgN/A
6:00 PM86 °FScattered clouds.7 mph75%29.68 "HgN/A
5:30 PM88 °FScattered clouds.8 mph70%29.68 "HgN/A
5:00 PM88 °FScattered clouds.9 mph70%29.65 "HgN/A
4:30 PM88 °FScattered clouds.9 mph70%29.65 "HgN/A
4:00 PM88 °FScattered clouds.9 mph66%29.65 "HgN/A
3:30 PM90 °FPassing clouds.9 mph63%29.65 "HgN/A
3:00 PM90 °FPassing clouds.10 mph63%29.68 "HgN/A
2:30 PM90 °FPassing clouds.10 mph63%29.68 "HgN/A
2:00 PM90 °FPassing clouds.12 mph59%29.68 "HgN/A
1:00 PM91 °FPassing clouds.13 mph59%29.68 "HgN/A
12:30 PM91 °FPassing clouds.12 mph59%29.71 "HgN/A
12:00 PM90 °FPassing clouds.13 mph63%29.71 "HgN/A
11:30 AM90 °FPassing clouds.13 mph63%29.71 "HgN/A
11:00 AM90 °FPassing clouds.12 mph63%29.74 "HgN/A
10:30 AM90 °FPassing clouds.7 mph55%29.74 "HgN/A
10:00 AM90 °FPassing clouds.8 mph63%29.77 "HgN/A
9:00 AM86 °FPassing clouds.6 mph70%29.77 "HgN/A
8:30 AM84 °FPassing clouds.2 mph74%29.77 "HgN/A
8:00 AM82 °FPassing clouds.6 mph79%29.74 "HgN/A
7:30 AM81 °FPassing clouds.5 mph79%29.74 "HgN/A
7:00 AM79 °FPassing clouds.3 mph94%29.74 "HgN/A
6:30 AM77 °FPassing clouds.No wind94%29.74 "HgN/A
6:00 AM75 °FPassing clouds.No wind100%29.74 "HgN/A
5:30 AM77 °FPassing clouds.No wind94%29.71 "HgN/A
5:00 AM77 °FPassing clouds.No wind94%29.71 "HgN/A
4:30 AM77 °FPassing clouds.No wind94%29.71 "HgN/A
4:00 AM77 °FPassing clouds.No wind94%29.71 "HgN/A
3:30 AM79 °FPassing clouds.5 mph89%29.71 "HgN/A
3:00 AM79 °FPassing clouds.8 mph89%29.71 "HgN/A
2:00 AM77 °FPassing clouds.No wind94%29.71 "HgN/A
1:00 AM77 °FPassing clouds.5 mph100%29.74 "HgN/A
12:30 AM77 °FPassing clouds.5 mph100%29.74 "HgN/A
12:00 AM77 °FPassing clouds.1 mph100%29.77 "HgN/A
11:30 PM
Jan 31
79 °FPassing clouds.3 mph94%29.77 "HgN/A
11:00 PM79 °FPassing clouds.No wind94%29.77 "HgN/A
10:30 PM79 °FPassing clouds.No wind94%29.77 "HgN/A
10:00 PM79 °FPassing clouds.5 mph94%29.77 "HgN/A
9:30 PM79 °FPassing clouds.1 mph94%29.77 "HgN/A
9:00 PM79 °FPartly cloudy.6 mph94%29.77 "HgN/A
8:30 PM79 °FPartly cloudy.3 mph94%29.77 "HgN/A
8:00 PM79 °FPartly cloudy.No wind94%29.74 "HgN/A
Weather by CustomWeather, © 2014

See weather overviewHow to use our weather pages